This demonstration page uses our WeatherBlox Daily Observations layout. Learn more.

Left ArrowRight Arrow

39.29038, -76.61219

Hourly Observations for December 25, 2020

Temp ( °F °C ) Dew Point ( °F °C ) Humidity (%) Winds ( mph kmh ) Pressure ( in mb ) Visibility ( mi km ) Precip ( " mm )
12:02 am 00:02 Cloudy with Heavy Rain 60 15.6 57 13.9 90 90 SW 15 24 29.41 996 1 2 0.13 3.30
12:08 am 00:08 Cloudy with Rain 60 15.6 57 13.9 90 90 SW 10 17 29.41 996 2 3 0.16 4.06
12:22 am 00:22 Cloudy with Rain 59 15 56 13.3 90 90 SW 14 22 29.42 996 3 5 0.24 6.10
12:33 am 00:33 Cloudy with Rain 58 14.4 55 12.8 90 90 WSW 13 20 29.41 996 4 6 0.28 7.11
12:54 am 00:54 Cloudy with Light Rain 58 14.4 54 12.2 87 87 SW 6 9 29.41 996 10 16 0.32 8.13
1:54 am 01:54 Cloudy with Light Rain 56 13.3 54 12.2 93 93 SSE 5 7 29.40 996 10 16 0.02 0.51
2:52 am 02:52 Cloudy with Light Rain 57 14 54 12 88 88 WSW 14 22 29.41 996 4 6 0.06 1.52
2:54 am 02:54 Cloudy with Light Rain 55 12.8 53 11.7 93 93 W 16 26 29.42 996 4 6 0.07 1.78
3:01 am 03:01 Cloudy with Light Rain 51 10.6 47 8.3 86 86 W 13 20 29.43 997 6 10 0.01 0.25
3:23 am 03:23 Cloudy with Light Rain 48 8.9 45 7.2 89 89 W 6 9 29.42 996 10 16 0.02 0.51
3:54 am 03:54 Cloudy with Light Rain 48 8.9 45 7.2 89 89 W 8 13 29.42 996 10 16 0.02 0.51
4:05 am 04:05 Cloudy 46 7.8 44 6.7 93 93 W 15 24 29.43 997 10 16 0.00 0.00
4:12 am 04:12 Cloudy 46 7.8 42 5.6 86 86 W 10 17 29.43 997 10 16 0.00 0.00
4:26 am 04:26 Cloudy 45 7.2 42 5.6 90 90 W 12 19 29.44 997 10 16 0.00 0.00
4:54 am 04:54 Cloudy with Light Rain 43 6.1 40 4.4 89 89 W 9 15 29.39 995 9 14 0.00 0.00
5:26 am 05:26 Cloudy 38 3.3 34 1.1 86 86 W 17 28 29.47 998 10 16 0.00 0.00
5:54 am 05:54 Cloudy 37 2.8 32 0 82 82 W 18 30 29.48 998 10 16 0.00 0.00
6:12 am 06:12 Cloudy 36 2.2 31 -0.6 82 82 WNW 10 17 29.46 998 10 16 0.00 0.00
6:30 am 06:30 Cloudy 36 2.2 31 -0.6 82 82 WNW 16 26 29.51 999 10 16 0.00 0.00
6:40 am 06:40 Cloudy 36 2.2 30 -1.1 79 79 W 14 22 29.51 999 10 16 0.00 0.00
6:54 am 06:54 Cloudy 35 1.7 30 -1.1 82 82 W 16 26 29.51 999 10 16 0.00 0.00
7:54 am 07:54 Cloudy 34 1.1 27 -2.8 76 76 W 12 19 29.54 1000 10 16 0.00 0.00
8:54 am 08:54 Cloudy 34 1.1 27 -2.8 76 76 W 15 24 29.56 1001 10 16 0.00 0.00
9:16 am 09:16 Cloudy 34 1.1 26 -3.3 73 73 W 16 26 29.60 1002 10 16 0.00 0.00
9:54 am 09:54 Cloudy 34 1.1 25 -3.9 70 70 W 14 22 29.60 1003 10 16 0.00 0.00
10:42 am 10:42 Cloudy 32 0 24 -4.4 73 73 W 17 28 29.61 1003 10 16 0.00 0.00
10:54 am 10:54 Cloudy 32 0 24 -4.4 73 73 W 16 26 29.61 1003 10 16 0.00 0.00
11:54 am 11:54 Cloudy 32 0 20 -6.7 61 61 W 18 30 29.62 1003 10 16 0.00 0.00
12:54 pm 12:54 Cloudy with Light Snow 32 0 21 -6.1 64 64 W 15 24 29.64 1004 5 8 0.00 0.00
1:15 pm 13:15 Mostly Cloudy 31 -0.6 19 -7.2 61 61 W 14 22 29.66 1004 9 14 0.00 0.00
1:54 pm 13:54 Mostly Cloudy 32 0 19 -7.2 59 59 WNW 15 24 29.65 1004 10 16 0.00 0.00
2:54 pm 14:54 Mostly Cloudy 33 0.6 18 -7.8 54 54 W 13 20 29.66 1004 10 16 0.00 0.00
3:54 pm 15:54 Mostly Cloudy 31 -0.6 15 -9.4 52 52 WSW 15 24 29.71 1006 10 16 0.00 0.00
4:54 pm 16:54 Mostly Cloudy 30 -1.1 13 -10.6 49 49 W 15 24 29.75 1007 10 16 0.00 0.00
5:54 pm 17:54 Cloudy 30 -1.1 12 -11.1 47 47 W 18 30 29.80 1009 10 16 0.00 0.00
6:54 pm 18:54 Mostly Cloudy 28 -2.2 11 -11.7 49 49 W 16 26 29.84 1011 10 16 0.00 0.00
7:54 pm 19:54 Partly Cloudy 26 -3.3 11 -11.7 53 53 W 13 20 29.87 1011 10 16 0.00 0.00
8:54 pm 20:54 Mostly Clear 25 -3.9 9 -12.8 50 50 W 16 26 29.90 1012 10 16 0.00 0.00
9:54 pm 21:54 Mostly Cloudy 25 -3.9 9 -12.8 50 50 W 12 19 29.92 1013 10 16 0.00 0.00
10:54 pm 22:54 Mostly Cloudy 25 -3.9 8 -13.3 48 48 W 18 30 29.93 1014 10 16 0.00 0.00
11:54 pm 23:54 Mostly Clear 24 -4.4 7 -13.9 48 48 W 14 22 29.93 1014 10 16 0.00 0.00

Powered by AerisWeather